Hourly Data Report for June 24, 2017

TORONTO CITY
ONTARIO

43°40'00.000" N
79°24'00.000" W
112.50 m
6158355
71508
XTO

Download Data

Hourly Data (June 2017)
Hourly Data Report for June 24, 2017
TIME
LST
Temp Definition
°C
Dew Point Definition
°C
Rel Hum Definition
%
Precip. Amount Definition
mm

Wind Dir Definition
10's deg

Wind Spd Definition
km/h
Visibility Definition
km
Stn Press Definition
kPa
Hmdx Definition


Wind Chill Definition


Weather Definition


00:00 20.5 12.5 60 0.0 LegendMM LegendMM   98.94     LegendNANA
01:00 19.1 12.6 66 0.0 LegendMM LegendMM   98.97     LegendNANA
02:00 18.4 11.5 64 0.0 LegendMM LegendMM   98.95     LegendNANA
03:00 17.5 11.9 70 0.0 LegendMM LegendMM   98.96     LegendNANA
04:00 17.3 11.6 69 0.0 LegendMM LegendMM   99.03     LegendNANA
05:00 16.6 11.6 72 0.0 LegendMM LegendMM   99.12     LegendNANA
06:00 17.8 10.9 64 0.0 LegendMM LegendMM   99.19     LegendNANA
07:00 19.2 10.6 58 0.0 LegendMM LegendMM   99.25     LegendNANA
08:00 20.8 9.7 49 0.0 LegendMM LegendMM   99.31     LegendNANA
09:00 22.0 9.1 44 0.0 LegendMM LegendMM   99.35     LegendNANA
10:00 23.3 8.2 38 0.0 LegendMM LegendMM   99.38     LegendNANA
11:00 23.6 9.3 40 0.0 LegendMM LegendMM   99.41 25   LegendNANA
12:00 24.3 9.8 40 0.0 LegendMM LegendMM   99.47 25   LegendNANA
13:00 24.1 9.4 40 0.0 LegendMM LegendMM   99.52 25   LegendNANA
14:00 24.6 9.5 38 0.0 LegendMM LegendMM   99.54 26   LegendNANA
15:00 23.9 8.1 37 0.0 LegendMM LegendMM   99.56     LegendNANA
16:00 24.4 8.7 37 0.0 LegendMM LegendMM   99.59 25   LegendNANA
17:00 23.4 8.8 39 0.0 LegendMM LegendMM   99.64     LegendNANA
18:00 23.1 9.2 41 0.0 LegendMM LegendMM   99.69     LegendNANA
19:00 22.4 10.0 45 0.0 LegendMM LegendMM   99.73     LegendNANA
20:00 21.7 9.5 46 0.0 LegendMM LegendMM   99.80     LegendNANA
21:00 19.7 10.7 56 0.0 LegendMM LegendMM   99.88     LegendNANA
22:00 19.0 11.0 60 0.0 LegendMM LegendMM   99.92     LegendNANA
23:00 19.3 11.2 60 0.0 LegendMM LegendMM   99.93     LegendNANA

Notes on Data Quality.

Legend

  • E = Estimated
  • M = Missing
  • NA = Not Available*
  • [empty] = Indicates an unobserved value
Date modified: